Regional Weather Roundup
Issued by NWS

Home | Current Version | Previous Version | Text Only | Print | Product List | Glossary Off
Versions: 1 2 3 4 5 6 7 8 9 10 11 12 13 14 15 16 17 18 19 20 21 22 23 24 25 26 27 28 29 30 31 32 33 34 35 36 37 38 39 40 41 42 43 44 45 46 47 48 49 50

000
ASUS43 KMPX 292210
RWRMN
WEATHER ROUNDUP FOR MINNESOTA
NATIONAL WEATHER SERVICE TWIN CITIES/CHANHASSEN MN
500 PM CDT WED MAR 29 2017


NOTE: "FAIR" INDICATES FEW OR NO CLOUDS BELOW 12,000 FEET WITH NO
SIGNIFICANT WEATHER AND/OR OBSTRUCTIONS TO VISIBILITY. N/A MEANS
CURRENT SKY AND/OR WEATHER CONDITIONS ARE NOT AVAILABLE.

MNZ060>063-068>070-292300-
   Twin Cities Metro

CITY           SKY/WX    TMP DP  RH WIND       PRES   REMARKS
TWIN CITIES    CLOUDY    48  36  63 SE12G21   30.17F
ST PAUL        CLOUDY    49  37  63 SE9       30.18F
CRYSTAL        CLOUDY    49  34  56 SE10      30.16F
BLAINE         CLOUDY    52  36  54 SE9       30.17F
LAKEVILLE      DRIZZLE   43  39  87 SE9       30.16F
EDEN PRAIRIE   CLOUDY    48  37  65 E15       30.15F
SOUTH ST PAUL  CLOUDY    48  36  61 SE3       30.17F
LAKE ELMO      FAIR      48  36  61 S7        30.18F
$$
MNZ001>005-007-008-013>017-022>024-027-028-292300-
   Northwest Minnesota

CITY           SKY/WX    TMP DP  RH WIND       PRES   REMARKS
BEMIDJI        MOSUNNY   55  32  43 SE9       30.10F
HALLOCK        MOSUNNY   57  48  72 S14       30.02F
ROSEAU         SUNNY     61  43  51 S12       30.05F
WARROAD        SUNNY     61  43  51 S9        30.06F
THIEF RVR FALL SUNNY     58  36  43 S13       30.06F
CROOKSTON      SUNNY     61  37  41 S20       30.05F
FOSSTON        CLOUDY    61  32  33 S15       30.08F
DETROIT LAKES  MOSUNNY   57  28  33 S15       30.10F
MOORHEAD       CLOUDY    57  39  51 S15       30.08F
PARK RAPIDS    CLOUDY    56  29  35 S15       30.11F
MAHNOMEN       FAIR      58  33  39 S15       30.08F
$$
MNZ006-009>011-018-025>026-292300-
   North Central Minnesota

CITY           SKY/WX    TMP DP  RH WIND       PRES   REMARKS
BAUDETTE       SUNNY     60  31  33 S13       30.07F
FLAG ISLAND    SUNNY     52  30  43 SE6       30.06F
INTL FALLS     MOSUNNY   53  32  44 SE13      30.13F
WASKISH        CLOUDY    57  30  35 S8        30.10F
BIG FORK       MOSUNNY   52  32  46 SE9       30.15F
LONGVILLE      MOSUNNY   54  30  40 S7        30.14F
GRAND RAPIDS   CLOUDY    48  32  53 SE7       30.18F
CRANE LAKE     MOSUNNY   50  27  40 SE3       30.20F
ORR            PTSUNNY   50  27  40 SE6       30.15F
COOK           MOSUNNY   48  30  49 E7        30.19F
WALKER         FAIR      51  33  49 E6        30.12F
$$
MNZ012-019>021-037-292300-
   Northeast Minnesota

CITY           SKY/WX    TMP DP  RH WIND       PRES   REMARKS
DULUTH         PTSUNNY   37  30  75 E12       30.22F
ELY            CLOUDY    43  25  49 SE10      30.21F
HIBBING        PTSUNNY   44  30  57 SE12      30.19F
EVELETH        CLOUDY    44  23  44 E7        30.21F
DULUTH HARBOR  CLOUDY    36  32  87 NE21      30.27F
TWO HARBORS    CLOUDY    37  30  75 NE13G22   30.24S
GRAND MARAIS     N/A     35  28  75 E21       30.31F WCI  24
G MARAIS ARPRT MOSUNNY   32  21  64 E8        30.26F WCI  25
$$
MNZ029>031-032-039>041-046>048-054>057-064-292300-
   West Central Minnesota

CITY           SKY/WX    TMP DP  RH WIND       PRES   REMARKS
FERGUS FALLS   MOSUNNY   57  30  35 S16       30.12F
WHEATON        CLOUDY    57  32  38 SE17      30.10F
MORRIS         CLOUDY    54  36  50 SE13      30.10F
ALEXANDRIA     CLOUDY    52  34  50 S12       30.13F
ELBOW LAKE     FAIR      55  30  38 S20       30.11F
WADENA         MOSUNNY   54  34  47 SE12G17   30.12F
GLENWOOD       CLOUDY    52  36  54 SE10      30.14S
APPLETON       CLOUDY    54  36  50 S3        30.12S
BENSON         CLOUDY    54  30  40 S13       30.15R
MADISON        CLOUDY    54  39  58 SE16G23   30.11S
WILLMAR        PTSUNNY   50  37  62 SE9       30.15F
$$
MNZ033>034-036-042>043-049>051-058-059-292300-
   Central Minnesota

CITY           SKY/WX    TMP DP  RH WIND       PRES   REMARKS
ST CLOUD       CLOUDY    51  36  56 SE12      30.15F
SAUK CENTRE    MOCLDY    51  35  56 SE13      30.14S
PAYNESVILLE    CLOUDY    49  35  57 SE9       30.15F
AITKIN         CLOUDY    54  30  40 E5        30.16S
PINE RIVER     CLOUDY    52  36  54 E8        30.17F
BRAINERD       PTSUNNY   50  32  50 VRB5      30.16F
STAPLES        CLOUDY    54  30  40 SE9       30.13F
LONG PRAIRIE   FAIR      50  34  53 E8        30.15S
LITTLE FALLS   CLOUDY    50  32  50 E6        30.16S
LITCHFIELD     CLOUDY    48  39  71 SE9G17    30.16S
BUFFALO        CLOUDY    48  35  60 SE6       30.17F
MAPLE LAKE     CLOUDY    50  38  64 SE6       30.17F
HUTCHINSON     DRIZZLE   46  42  89 SE10      30.16F
$$
MNZ037-044-045-052-053-292300-
   East Central Minnesota

CITY           SKY/WX    TMP DP  RH WIND       PRES   REMARKS
PRINCETON      CLOUDY    52  36  54 SE8       30.17S
MORA           CLOUDY    50  34  53 E3        30.19S
CAMBRIDGE      CLOUDY    54  37  54 SE6       30.15F
RUSH CITY      CLOUDY    51  34  52 S9        30.18S
MOOSE LAKE     CLOUDY    39  32  75 NE12G17   30.19F
CLOQUET        CLOUDY    36  28  75 E10       30.22S
MCGREGOR       CLOUDY    46  34  61 E9        30.19S
$$
MNZ071>073-080-081-089-090-097-098-292300-
   Southwest Minnesota

CITY           SKY/WX    TMP DP  RH WIND       PRES   REMARKS
MONTEVIDEO     CLOUDY    52  37  58 S18       30.13R
GRANITE FALLS  CLOUDY    49  39  68 SE20G26   30.14S
CANBY          CLOUDY    50  38  62 E18       30.12S
MARSHALL       LGT RAIN  45  40  82 SE18G26   30.12S
REDWOOD FALLS  LGT RAIN  45  40  82 SE14      30.13S
OLIVIA         LGT RAIN  46  41  81 SE16      30.14S
PIPESTONE      RAIN      43  36  75 SE16G24   30.06F
WINDOM         LGT RAIN  43  39  87 E14G21    30.09F
WORTHINGTON    LGT RAIN  40  37  89 E20       30.06S
JACKSON        LGT RAIN  39  39 100 E22G28    30.08F
TRACY          LGT RAIN  44  41  91 E14       30.11S
SLAYTON        LGT RAIN  40  38  93 E20G26    30.09S
$$
MNZ065>067-074>077-082>085-091>093-292300-
   South Central Minnesota

CITY           SKY/WX    TMP DP  RH WIND       PRES   REMARKS
MANKATO        LGT RAIN  43  39  86 E14       30.13F
NEW ULM        LGT RAIN  45  39  81 E15       30.13F
ST JAMES       RAIN      43  39  87 E14G23    30.12S
FAIRMONT       LGT RAIN  41  37  86 E20G29    30.10S FOG
GLENCOE        DRIZZLE   46  44  94 E10       30.15F
FARIBAULT      LGT RAIN  43  39  87 E15G23    30.14F
OWATONNA       RAIN      43  37  81 E18G26    30.13F
WASECA         LGT RAIN  41  36  81 E21G28    30.14S
ALBERT LEA     LGT RAIN  39  39 100 E14G21    30.11S
$$
MNZ078>079-086>088-094>096-292300-
   Southeast Minnesota

CITY           SKY/WX    TMP DP  RH WIND       PRES   REMARKS
ROCHESTER      LGT RAIN  42  38  85 E18       30.13F
RED WING       DRIZZLE   46  37  71 SE10      30.17F
STANTON        LGT RAIN  45  39  81 E8        30.15F
DODGE CENTER   LGT RAIN  39  37  93 E22G31    30.13F
WINONA         DRIZZLE   43  39  87 E7        30.20R
AUSTIN         LGT RAIN  43  37  81 E18G24    30.11F
PRESTON        LGT RAIN  42  35  74 E13       30.14F
$$
ABBREVIATIONS USED IN REMARKS
   TC - TEMPERATURES IN CELSIUS
  WCI - WIND CHILL INDEX
   HX - HEAT INDEX
  VSB - VISIBILITY
$$




USA.gov is the U.S. government's official web portal to all federal, state and local government web resources and services.